When you browse on this site, cookies collect data to enhance your experience and personalize the content and advertising you see.
Visit our Privacy Policy to learn more. By continuing to use the site, you agree to this use of cookies and data.
  • In Latvia
  • List of Countries
  • For 7 days
  • Water Temperature
  • Satellite Maps
  • Weather Map
  • Weather Widgets
  • user-avatar
    Login

    Hourly Weather Benguela

    Today, 20 July, Saturday

    Time Temperature Precipitation Wind Pressure Humidity
    00:00 +18°C° 0 mm 0 mps 761 mmHg 91%
    01:00 +17°C° 0 mm 0 mps 760 mmHg 91%
    02:00 +17°C° 0 mm 0 mps 760 mmHg 90%
    03:00 +17°C° 0 mm 0 mps 760 mmHg 90%
    04:00 +16°C° 0 mm 0 mps 760 mmHg 90%
    05:00 +19°C° 0 mm 1 mps 761 mmHg 88%
    06:00 +20°C° 0 mm 1 mps 761 mmHg 86%
    07:00 +19°C° 0 mm 2 mps 761 mmHg 85%
    08:00 +23°C° 0 mm 2 mps 762 mmHg 75%
    09:00 +25°C° 0 mm 3 mps 762 mmHg 65%
    10:00 +28°C° 0 mm 3 mps 762 mmHg 56%
    11:00 +28°C° 0 mm 3 mps 761 mmHg 55%
    12:00 +29°C° 0 mm 4 mps 760 mmHg 55%
    13:00 +29°C° 0 mm 4 mps 759 mmHg 54%
    14:00 +29°C° 0 mm 3 mps 759 mmHg 57%
    15:00 +28°C° 0 mm 3 mps 759 mmHg 59%
    16:00 +28°C° 0 mm 3 mps 758 mmHg 62%
    17:00 +25°C° 0 mm 2 mps 759 mmHg 72%
    18:00 +23°C° 0 mm 1 mps 759 mmHg 82%
    19:00 +21°C° 0 mm 1 mps 760 mmHg 92%
    20:00 +21°C° 0 mm 1 mps 761 mmHg 93%
    21:00 +20°C° 0 mm 1 mps 761 mmHg 93%
    22:00 +20°C° 0 mm 1 mps 762 mmHg 93%
    23:00 +20°C° 0 mm 1 mps 761 mmHg 93%

    Tomorrow, 21 July, Sunday

    Time Temperature Precipitation Wind Pressure Humidity
    00:00 +19°C° 0 mm 1 mps 761 mmHg 92%
    01:00 +19°C° 0 mm 1 mps 761 mmHg 92%
    02:00 +19°C° 0 mm 1 mps 761 mmHg 90%
    03:00 +18°C° 0 mm 2 mps 761 mmHg 88%
    04:00 +19°C° 0 mm 2 mps 761 mmHg 85%
    05:00 +19°C° 0 mm 2 mps 761 mmHg 84%
    06:00 +20°C° 0 mm 1 mps 761 mmHg 83%
    07:00 +20°C° 0 mm 1 mps 762 mmHg 81%
    08:00 +23°C° 0 mm 1 mps 762 mmHg 70%
    09:00 +25°C° 0 mm 2 mps 762 mmHg 59%
    10:00 +28°C° 0 mm 2 mps 762 mmHg 49%
    11:00 +29°C° 0 mm 2 mps 761 mmHg 49%
    12:00 +30°C° 0 mm 3 mps 760 mmHg 49%
    13:00 +30°C° 0 mm 4 mps 760 mmHg 49%
    14:00 +30°C° 0 mm 4 mps 759 mmHg 52%
    15:00 +29°C° 0 mm 4 mps 759 mmHg 54%
    16:00 +28°C° 0 mm 4 mps 758 mmHg 56%
    17:00 +26°C° 0 mm 3 mps 759 mmHg 68%
    18:00 +24°C° 0 mm 3 mps 760 mmHg 79%
    19:00 +20°C° 0 mm 2 mps 760 mmHg 91%
    20:00 +20°C° 0 mm 2 mps 761 mmHg 92%
    21:00 +20°C° 0 mm 1 mps 761 mmHg 93%
    22:00 +20°C° 0 mm 1 mps 762 mmHg 94%
    23:00 +19°C° 0 mm 1 mps 761 mmHg 94%

    Day after tomorrow, 22 July, Monday

    Time Temperature Precipitation Wind Pressure Humidity
    00:00 +19°C° 0 mm 1 mps 761 mmHg 93%
    01:00 +18°C° 0 mm 2 mps 761 mmHg 93%
    02:00 +19°C° 0 mm 1 mps 760 mmHg 93%
    03:00 +18°C° 0 mm 1 mps 760 mmHg 93%
    04:00 +18°C° 0 mm 1 mps 760 mmHg 92%
    05:00 +19°C° 0 mm 1 mps 760 mmHg 92%
    06:00 +19°C° 0 mm 1 mps 761 mmHg 91%
    07:00 +18°C° 0 mm 2 mps 761 mmHg 90%
    08:00 +21°C° 0 mm 2 mps 761 mmHg 78%
    09:00 +25°C° 0 mm 2 mps 761 mmHg 66%
    10:00 +27°C° 0 mm 2 mps 761 mmHg 54%
    11:00 +29°C° 0 mm 3 mps 760 mmHg 51%
    12:00 +30°C° 0 mm 3 mps 759 mmHg 49%
    13:00 +32°C° 0 mm 4 mps 758 mmHg 46%
    14:00 +30°C° 0 mm 3 mps 758 mmHg 51%
    15:00 +29°C° 0 mm 3 mps 758 mmHg 56%
    16:00 +27°C° 0 mm 3 mps 757 mmHg 61%
    17:00 +25°C° 0 mm 2 mps 758 mmHg 72%
    18:00 +23°C° 0 mm 2 mps 759 mmHg 82%
    19:00 +21°C° 0 mm 1 mps 759 mmHg 93%
    20:00 +21°C° 0 mm 1 mps 760 mmHg 93%
    21:00 +21°C° 0 mm 1 mps 760 mmHg 94%
    22:00 +20°C° 0 mm 1 mps 761 mmHg 94%
    23:00 +21°C° 0 mm 1 mps 760 mmHg 92%

    23 July, Tuesday

    Time Temperature Precipitation Wind Pressure Humidity
    00:00 +21°C° 0 mm 1 mps 760 mmHg 91%
    01:00 +21°C° 0 mm 1 mps 760 mmHg 89%
    02:00 +20°C° 0 mm 1 mps 760 mmHg 90%
    03:00 +20°C° 0 mm 1 mps 760 mmHg 92%
    04:00 +19°C° 0 mm 1 mps 760 mmHg 93%
    05:00 +19°C° 0 mm 1 mps 760 mmHg 93%
    06:00 +19°C° 0 mm 2 mps 761 mmHg 93%
    07:00 +19°C° 0 mm 2 mps 761 mmHg 93%
    08:00 +21°C° 0 mm 2 mps 761 mmHg 81%
    09:00 +25°C° 0 mm 3 mps 761 mmHg 69%
    10:00 +27°C° 0 mm 3 mps 761 mmHg 57%
    11:00 +28°C° 0 mm 3 mps 760 mmHg 56%
    12:00 +28°C° 0 mm 4 mps 759 mmHg 55%
    13:00 +29°C° 0 mm 4 mps 758 mmHg 53%
    14:00 +28°C° 0 mm 3 mps 758 mmHg 56%
    15:00 +28°C° 0 mm 3 mps 758 mmHg 59%
    16:00 +27°C° 0 mm 3 mps 758 mmHg 61%
    17:00 +25°C° 0 mm 2 mps 758 mmHg 71%
    18:00 +23°C° 0 mm 2 mps 759 mmHg 81%
    19:00 +20°C° 0 mm 2 mps 759 mmHg 91%
    20:00 +19°C° 0 mm 2 mps 760 mmHg 92%
    21:00 +20°C° 0 mm 1 mps 760 mmHg 93%
    22:00 +20°C° 0 mm 1 mps 760 mmHg 94%
    23:00 +20°C° 0 mm 1 mps 760 mmHg 93%

    24 July, Wednesday

    Time Temperature Precipitation Wind Pressure Humidity
    00:00 +20°C° 0 mm 1 mps 760 mmHg 93%
    01:00 +20°C° 0 mm 1 mps 760 mmHg 92%
    02:00 +19°C° 0 mm 1 mps 759 mmHg 92%
    03:00 +19°C° 0 mm 1 mps 759 mmHg 92%
    04:00 +19°C° 0 mm 1 mps 759 mmHg 92%
    05:00 +19°C° 0 mm 1 mps 759 mmHg 92%
    06:00 +18°C° 0 mm 2 mps 760 mmHg 91%
    07:00 +18°C° 0 mm 2 mps 760 mmHg 90%
    08:00 +21°C° 0 mm 2 mps 760 mmHg 79%
    09:00 +25°C° 0 mm 3 mps 760 mmHg 67%
    10:00 +28°C° 0 mm 3 mps 760 mmHg 55%
    11:00 +28°C° 0 mm 3 mps 759 mmHg 55%
    12:00 +29°C° 0 mm 4 mps 758 mmHg 55%
    13:00 +29°C° 0 mm 4 mps 758 mmHg 54%
    14:00 +28°C° 0 mm 4 mps 757 mmHg 57%
    15:00 +28°C° 0 mm 3 mps 757 mmHg 60%
    16:00 +27°C° 0 mm 3 mps 757 mmHg 63%
    17:00 +25°C° 0 mm 2 mps 757 mmHg 72%
    18:00 +23°C° 0 mm 1 mps 758 mmHg 82%
    19:00 +21°C° 0 mm 1 mps 758 mmHg 91%
    20:00 +20°C° 0 mm 1 mps 759 mmHg 92%
    21:00 +20°C° 0 mm 1 mps 759 mmHg 93%
    22:00 +20°C° 0 mm 1 mps 759 mmHg 93%
    23:00 +19°C° 0 mm 1 mps 759 mmHg 92%

    25 July, Thursday

    Time Temperature Precipitation Wind Pressure Humidity
    00:00 +19°C° 0 mm 1 mps 759 mmHg 91%
    01:00 +19°C° 0 mm 1 mps 759 mmHg 90%
    02:00 +19°C° 0 mm 1 mps 759 mmHg 90%
    03:00 +19°C° 0 mm 1 mps 759 mmHg 90%
    04:00 +18°C° 0 mm 1 mps 759 mmHg 90%
    05:00 +19°C° 0 mm 1 mps 759 mmHg 90%
    06:00 +18°C° 0 mm 2 mps 760 mmHg 90%
    07:00 +19°C° 0 mm 2 mps 760 mmHg 90%
    08:00 +21°C° 0 mm 2 mps 760 mmHg 80%
    09:00 +25°C° 0 mm 3 mps 760 mmHg 69%
    10:00 +27°C° 0 mm 3 mps 760 mmHg 58%
    11:00 +28°C° 0 mm 3 mps 759 mmHg 58%
    12:00 +28°C° 0 mm 4 mps 759 mmHg 58%
    13:00 +29°C° 0 mm 5 mps 758 mmHg 57%
    14:00 +28°C° 0 mm 4 mps 758 mmHg 61%
    15:00 +27°C° 0 mm 4 mps 758 mmHg 65%
    16:00 +26°C° 0 mm 3 mps 758 mmHg 69%
    17:00 +25°C° 0 mm 3 mps 758 mmHg 74%
    18:00 +24°C° 0 mm 2 mps 759 mmHg 78%
    19:00 +23°C° 0 mm 2 mps 760 mmHg 83%
    20:00 +22°C° 0 mm 1 mps 760 mmHg 84%
    21:00 +22°C° 0 mm 1 mps 761 mmHg 84%
    22:00 +22°C° 0 mm 1 mps 761 mmHg 85%
    23:00 +21°C° 0 mm 1 mps 761 mmHg 87%
    Show more